| time (UTC) | temp C | wind direction | speed KPH | gust KPH | rain 1hr cm | rain 24hr cm | rain mn cm | humidity % | barometer mb |
| 20260901014304 | 30 | 41 | 0.0 | 0.0 | 0.00 | 0.00 | 0.00 | 57 | 1012.2 |
| 20260901011005 | 31 | 41 | 0.0 | 0.0 | 0.00 | 0.00 | 0.00 | 54 | 1012.1 |
| 20260901003806 | 32 | 53 | 1.6 | 4.8 | 0.00 | 0.00 | 0.00 | 50 | 1012.0 |
| 20260901002732 | 33 | 31 | 1.6 | 9.7 | 0.00 | 0.00 | 0.00 | 49 | 1011.8 |
| 20260901001658 | 33 | 82 | 1.6 | 9.7 | 0.00 | 0.00 | 0.00 | 48 | 1011.9 |
| 20260831232107 | 35 | 83 | 4.8 | 16.1 | 0.00 | 0.00 | 0.00 | 46 | 1011.8 |
| 20260831225952 | 35 | 97 | 4.8 | 11.3 | 0.00 | 0.00 | 0.00 | 46 | 1011.9 |
| 20260831224918 | 35 | 69 | 4.8 | 16.1 | 0.00 | 0.00 | 0.00 | 45 | 1011.9 |
| 20260831223940 | 35 | 78 | 6.4 | 16.1 | 0.00 | 0.00 | 0.00 | 45 | 1011.9 |
| 20260831222913 | 35 | 198 | 1.6 | 12.9 | 0.00 | 0.00 | 0.00 | 46 | 1011.9 |
| 20260831221926 | 35 | 115 | 4.8 | 12.9 | 0.00 | 0.00 | 0.00 | 46 | 1012.1 |
| 20260831220932 | 35 | 117 | 4.8 | 12.9 | 0.00 | 0.00 | 0.00 | 45 | 1012.2 |
| 20260831215944 | 35 | 117 | 4.8 | 12.9 | 0.00 | 0.00 | 0.00 | 46 | 1012.2 |
| 20260831213801 | 35 | 131 | 8.0 | 16.1 | 0.00 | 0.00 | 0.00 | 47 | 1012.4 |
| 20260831211601 | 35 | 98 | 6.4 | 16.1 | 0.00 | 0.00 | 0.00 | 48 | 1012.7 |
| 20260831205433 | 35 | 103 | 8.0 | 16.1 | 0.00 | 0.00 | 0.00 | 48 | 1012.9 |
| 20260831204444 | 35 | 131 | 8.0 | 19.3 | 0.00 | 0.00 | 0.00 | 47 | 1013.2 |
| 20260831203429 | 35 | 105 | 6.4 | 19.3 | 0.00 | 0.00 | 0.00 | 50 | 1013.5 |
| 20260831202431 | 35 | 172 | 4.8 | 19.3 | 0.00 | 0.00 | 0.00 | 49 | 1013.6 |
| 20260831201430 | 35 | 121 | 9.7 | 19.3 | 0.00 | 0.00 | 0.00 | 47 | 1013.8 |
| 20260831200438 | 35 | 111 | 6.4 | 17.7 | 0.00 | 0.00 | 0.00 | 51 | 1013.9 |
| 20260831195430 | 34 | 96 | 8.0 | 17.7 | 0.00 | 0.00 | 0.00 | 52 | 1014.1 |
| 20260831194357 | 34 | 51 | 8.0 | 16.1 | 0.00 | 0.00 | 0.00 | 51 | 1014.2 |
| 20260831193334 | 34 | 131 | 6.4 | 16.1 | 0.00 | 0.00 | 0.00 | 52 | 1014.2 |
| 20260831192315 | 34 | 50 | 6.4 | 22.5 | 0.00 | 0.00 | 0.00 | 53 | 1014.3 |
| 20260831191335 | 34 | 178 | 8.0 | 22.5 | 0.00 | 0.00 | 0.00 | 54 | 1014.4 |
| 20260831190328 | 33 | 180 | 8.0 | 20.9 | 0.00 | 0.00 | 0.00 | 53 | 1014.6 |
| 20260831182959 | 33 | 163 | 6.4 | 17.7 | 0.00 | 0.00 | 0.00 | 55 | 1014.9 |
| 20260831182005 | 33 | 63 | 6.4 | 14.5 | 0.00 | 0.00 | 0.00 | 56 | 1015.0 |
| 20260831180941 | 33 | 161 | 9.7 | 22.5 | 0.00 | 0.00 | 0.00 | 57 | 1015.2 |
| 20260831175926 | 32 | 164 | 8.0 | 22.5 | 0.00 | 0.00 | 0.00 | 58 | 1015.2 |
| 20260831173756 | 32 | 170 | 6.4 | 14.5 | 0.00 | 0.00 | 0.00 | 60 | 1015.6 |
| 20260831172758 | 32 | 110 | 6.4 | 17.7 | 0.00 | 0.00 | 0.00 | 63 | 1015.7 |
| 20260831171727 | 31 | 105 | 8.0 | 17.7 | 0.00 | 0.00 | 0.00 | 66 | 1015.9 |
| 20260831170721 | 31 | 67 | 6.4 | 14.5 | 0.00 | 0.00 | 0.00 | 65 | 1016.0 |
| 20260831164549 | 31 | 110 | 6.4 | 16.1 | 0.00 | 0.00 | 0.00 | 68 | 1016.1 |
| 20260831163554 | 30 | 150 | 6.4 | 12.9 | 0.00 | 0.00 | 0.00 | 71 | 1016.0 |
| 20260831162601 | 30 | 208 | 4.8 | 16.1 | 0.00 | 0.00 | 0.00 | 71 | 1016.0 |
| 20260831161535 | 30 | 159 | 6.4 | 16.1 | 0.00 | 0.00 | 0.00 | 73 | 1016.0 |
| 20260831160535 | 30 | 78 | 6.4 | 16.1 | 0.00 | 0.00 | 0.00 | 71 | 1015.9 |
| 20260831155550 | 30 | 95 | 8.0 | 16.1 | 0.00 | 0.00 | 0.00 | 73 | 1015.9 |
| 20260831154522 | 29 | 76 | 8.0 | 16.1 | 0.00 | 0.00 | 0.00 | 75 | 1015.9 |
| 20260831153450 | 29 | 150 | 4.8 | 14.5 | 0.00 | 0.00 | 0.00 | 77 | 1015.8 |
| 20260831152441 | 29 | 152 | 6.4 | 14.5 | 0.00 | 0.00 | 0.00 | 76 | 1015.8 |
| 20260831151446 | 28 | 140 | 6.4 | 14.5 | 0.00 | 0.00 | 0.00 | 78 | 1015.7 |
| 20260831150443 | 28 | 168 | 6.4 | 14.5 | 0.00 | 0.00 | 0.00 | 80 | 1015.7 |
| 20260831145424 | 28 | 191 | 6.4 | 14.5 | 0.00 | 0.00 | 0.00 | 81 | 1015.5 |
| 20260831144443 | 27 | 135 | 6.4 | 16.1 | 0.00 | 0.00 | 0.00 | 85 | 1015.4 |
| 20260831143422 | 27 | 186 | 6.4 | 16.1 | 0.00 | 0.00 | 0.00 | 86 | 1015.5 |
| 20260831142359 | 26 | 196 | 6.4 | 16.1 | 0.00 | 0.00 | 0.00 | 87 | 1015.5 |
| 20260831141413 | 26 | 182 | 6.4 | 16.1 | 0.00 | 0.00 | 0.00 | 88 | 1015.5 |
| 20260831140352 | 26 | 177 | 6.4 | 14.5 | 0.00 | 0.00 | 0.00 | 90 | 1015.3 |
| 20260831135348 | 25 | 117 | 4.8 | 11.3 | 0.00 | 0.00 | 0.00 | 91 | 1015.3 |
| 20260831134411 | 25 | 168 | 3.2 | 9.7 | 0.00 | 0.00 | 0.00 | 92 | 1015.2 |
| 20260831133351 | 25 | 150 | 1.6 | 9.7 | 0.00 | 0.00 | 0.00 | 93 | 1015.1 |
| 20260831132329 | 25 | 98 | 0.0 | 6.4 | 0.00 | 0.00 | 0.00 | 94 | 1015.0 |
| 20260831131259 | 24 | 129 | 0.0 | 0.0 | 0.00 | 0.00 | 0.00 | 95 | 1014.9 |
| 20260831130242 | 23 | 129 | 0.0 | 0.0 | 0.00 | 0.00 | 0.00 | 94 | 1014.8 |
| 20260831125234 | 23 | 129 | 0.0 | 0.0 | 0.00 | 0.00 | 0.00 | 94 | 1014.6 |
| 20260831124243 | 23 | 129 | 0.0 | 0.0 | 0.00 | 0.00 | 0.00 | 94 | 1014.6 |
| 20260831123253 | 23 | 129 | 0.0 | 1.6 | 0.00 | 0.00 | 0.00 | 94 | 1014.6 |
| 20260831122242 | 23 | 129 | 0.0 | 4.8 | 0.00 | 0.00 | 0.00 | 94 | 1014.5 |
| 20260831121209 | 23 | 129 | 0.0 | 4.8 | 0.00 | 0.00 | 0.00 | 93 | 1014.4 |
| 20260831115128 | 23 | 105 | 0.0 | 4.8 | 0.00 | 0.00 | 0.00 | 93 | 1014.4 |
| 20260831113019 | 23 | 130 | 1.6 | 6.4 | 0.00 | 0.00 | 0.00 | 93 | 1014.1 |
| 20260831111955 | 23 | 131 | 1.6 | 8.0 | 0.00 | 0.00 | 0.00 | 92 | 1014.2 |
| 20260831110958 | 24 | 135 | 1.6 | 9.7 | 0.00 | 0.00 | 0.00 | 92 | 1014.2 |
| 20260831110016 | 24 | 131 | 1.6 | 9.7 | 0.00 | 0.00 | 0.00 | 92 | 1014.1 |
| 20260831105025 | 24 | 138 | 4.8 | 12.9 | 0.00 | 0.00 | 0.00 | 92 | 1014.1 |
| 20260831104009 | 24 | 138 | 3.2 | 12.9 | 0.00 | 0.00 | 0.00 | 91 | 1014.0 |
| 20260831103029 | 24 | 148 | 3.2 | 11.3 | 0.00 | 0.00 | 0.00 | 91 | 1014.1 |
| 20260831101959 | 24 | 166 | 4.8 | 12.9 | 0.00 | 0.00 | 0.00 | 91 | 1014.1 |
| 20260831100932 | 24 | 105 | 3.2 | 12.9 | 0.00 | 0.00 | 0.00 | 90 | 1014.2 |
| 20260831095941 | 24 | 140 | 3.2 | 9.7 | 0.00 | 0.00 | 0.00 | 90 | 1014.0 |
| 20260831094945 | 25 | 117 | 1.6 | 9.7 | 0.00 | 0.00 | 0.00 | 89 | 1014.0 |
| 20260831093937 | 25 | 129 | 3.2 | 8.0 | 0.00 | 0.00 | 0.00 | 88 | 1014.0 |
| 20260831091857 | 25 | 128 | 3.2 | 9.7 | 0.00 | 0.00 | 0.00 | 86 | 1013.9 |
| 20260831090835 | 25 | 119 | 4.8 | 14.5 | 0.00 | 0.00 | 0.00 | 85 | 1013.8 |
| 20260831085849 | 25 | 139 | 4.8 | 14.5 | 0.00 | 0.00 | 0.00 | 85 | 1013.9 |
| 20260831084818 | 25 | 103 | 4.8 | 12.9 | 0.00 | 0.00 | 0.00 | 84 | 1014.0 |
| 20260831083805 | 25 | 102 | 6.4 | 12.9 | 0.00 | 0.00 | 0.00 | 83 | 1014.0 |
| 20260831081559 | 26 | 142 | 6.4 | 16.1 | 0.00 | 0.00 | 0.00 | 82 | 1013.8 |
| 20260831080605 | 26 | 109 | 4.8 | 14.5 | 0.00 | 0.00 | 0.00 | 82 | 1013.8 |
| 20260831074502 | 26 | 147 | 3.2 | 9.7 | 0.00 | 0.00 | 0.00 | 81 | 1013.8 |
| 20260831073523 | 26 | 138 | 3.2 | 9.7 | 0.00 | 0.00 | 0.00 | 81 | 1013.8 |
| 20260831072521 | 26 | 137 | 3.2 | 9.7 | 0.00 | 0.00 | 0.00 | 80 | 1013.9 |
| 20260831071452 | 26 | 144 | 3.2 | 12.9 | 0.00 | 0.00 | 0.00 | 80 | 1013.9 |
| 20260831065408 | 26 | 130 | 1.6 | 6.4 | 0.00 | 0.00 | 0.00 | 79 | 1014.0 |
| 20260831064426 | 26 | 115 | 1.6 | 6.4 | 0.00 | 0.00 | 0.00 | 78 | 1014.0 |
| 20260831063355 | 27 | 105 | 1.6 | 6.4 | 0.00 | 0.00 | 0.00 | 77 | 1014.1 |
| 20260831062329 | 27 | 121 | 3.2 | 9.7 | 0.00 | 0.00 | 0.00 | 77 | 1014.2 |
| 20260831055107 | 27 | 119 | 3.2 | 9.7 | 0.00 | 0.00 | 0.00 | 74 | 1014.0 |
| 20260831054102 | 28 | 146 | 3.2 | 9.7 | 0.00 | 0.00 | 0.00 | 74 | 1014.0 |
| 20260831053054 | 28 | 133 | 1.6 | 9.7 | 0.00 | 0.00 | 0.00 | 73 | 1014.0 |
| 20260831052113 | 28 | 105 | 3.2 | 11.3 | 0.00 | 0.00 | 0.00 | 72 | 1014.0 |
| 20260831051108 | 28 | 118 | 4.8 | 16.1 | 0.00 | 0.00 | 0.00 | 71 | 1013.8 |
| 20260831050104 | 28 | 89 | 6.4 | 16.1 | 0.00 | 0.00 | 0.00 | 70 | 1013.7 |
| 20260831045122 | 28 | 104 | 6.4 | 12.9 | 0.00 | 0.00 | 0.00 | 70 | 1013.7 |
| 20260831044141 | 28 | 132 | 6.4 | 14.5 | 0.00 | 0.00 | 0.00 | 70 | 1013.6 |
| 20260831043120 | 29 | 107 | 6.4 | 14.5 | 0.00 | 0.00 | 0.00 | 69 | 1013.6 |
| 20260831042103 | 29 | 140 | 8.0 | 17.7 | 0.00 | 0.00 | 0.00 | 69 | 1013.6 |
| 20260831035935 | 29 | 94 | 6.4 | 20.9 | 0.00 | 0.00 | 0.00 | 69 | 1013.5 |
| 20260831034952 | 29 | 105 | 8.0 | 20.9 | 0.00 | 0.00 | 0.00 | 69 | 1013.4 |
| 20260831032738 | 29 | 96 | 4.8 | 12.9 | 0.00 | 0.00 | 0.00 | 69 | 1013.3 |
| 20260831031751 | 29 | 55 | 4.8 | 9.7 | 0.00 | 0.00 | 0.00 | 67 | 1013.1 |
| 20260831030758 | 29 | 103 | 4.8 | 12.9 | 0.00 | 0.00 | 0.00 | 65 | 1013.0 |
| 20260831025800 | 29 | 75 | 4.8 | 12.9 | 0.00 | 0.00 | 0.00 | 64 | 1012.8 |
| 20260831024744 | 28 | 82 | 1.6 | 9.7 | 0.00 | 0.00 | 0.00 | 66 | 1012.6 |
| 20260831023718 | 28 | 71 | 0.0 | 3.2 | 0.00 | 0.00 | 0.00 | 67 | 1012.4 |
| 20260831021613 | 28 | 71 | 0.0 | 3.2 | 0.00 | 0.00 | 0.00 | 66 | 1012.2 |
| 20260831020557 | 28 | 71 | 0.0 | 3.2 | 0.00 | 0.00 | 0.00 | 66 | 1012.0 |
| 20260831015544 | 28 | 71 | 0.0 | 4.8 | 0.00 | 0.00 | 0.00 | 66 | 1011.9 |